Location: Conjunto Santa Maria
(19.9513°S, 43.9599°W)
Time: 10:25:30
(UTC+00:00)

Daily predictions for brighter satellites

Satellite Brightness Start Highest point End
(mag) Time Altitude Azimuth Time Altitude Azimuth Time Altitude Azimuth
GEOS 3 Rocket 4.4 21:42:32 10° NNE 21:47:44 56° WNW 21:52:59 10° SW
Cosmos 1743 3.4 21:45:35 10° NNW 21:49:25 62° W 21:53:19 10° S
NATO 3D Rocket 3.4 21:46:28 10° W 21:51:31 83° S 21:56:16 10° E
Cosmos 2278 Rocket 3.6 21:49:17 10° NW 21:54:39 45° WSW 22:00:05 10° S
Cosmos 1486 Rocket 4.0 21:56:43 10° S 22:02:01 71° ESE 22:07:17 10° NNE
Cosmos 1300 Rocket 3.7 21:57:50 10° N 22:02:02 52° E 22:06:19 10° SSE
FALCON 9 R/B 2.3 21:59:54 10° WSW 22:02:24 39° S 22:09:28 10° ESE
Delta 142 4.1 21:59:41 10° WSW 22:04:35 86° SSE 22:10:44 11° ENE
CSL-04 Rocket 3.6 22:00:44 10° SSE 22:06:04 63° ENE 22:11:17 10° N
Hubble Space Telescope 2.7 22:10:07 10° WSW 22:13:38 26° S 22:17:10 10° SE
Cosmos 405 Rocket 2.7 22:17:17 10° N 22:21:06 89° E 22:25:05 10° S
Cosmos 921 Rocket 4.2 22:16:52 10° NNW 22:21:11 49° WSW 22:25:36 10° S
Okean 1 Rocket 3.9 22:18:24 10° NNE 22:22:13 30° E 22:26:09 10° SSE
Cosmos 1842 3.9 22:20:46 10° SSE 22:24:23 36° E 22:26:44 18° NE
Cosmos 1745 Rocket 4.2 22:19:42 10° S 22:25:57 56° E 22:32:10 10° NNE
CSL-04 Debris 4.4 22:21:05 10° S 22:26:37 77° WSW 22:32:05 10° NNW
Okean 2 3.4 22:23:39 10° S 22:27:53 85° W 22:32:03 10° N
Cosmos 1833 Rocket 3.6 22:24:51 10° S 22:29:47 31° ESE 22:32:42 20° ENE
Cosmos 1943 Rocket 3.2 22:28:21 16° NE 22:31:13 23° ENE 22:35:30 10° SE
Cosmos 2151 Rocket 4.0 22:28:35 10° NNW 22:32:56 64° W 22:37:23 10° S
Cosmos 1939 Rocket 3.3 22:29:30 10° S 22:33:39 69° WSW 22:37:42 10° NNW
SWARM A 4.2 22:34:10 17° NNE 22:36:35 64° E 22:39:56 10° S
Iridium 4 Rocket 3.8 22:30:54 10° S 22:36:49 79° E 22:42:42 10° N
Aurora 2 Rocket 1.7 22:34:00 10° WNW 22:37:16 75° SSW 22:39:11 21° ESE
H-2A R/B 3.2 22:33:18 10° SE 22:37:31 23° E 22:38:23 22° ENE
ATLAS CENTAUR R/B -0.1 22:36:32 10° SSW 22:38:31 77° ESE 22:38:31 77° ESE
Genesis I 2.9 22:41:20 10° NNW 22:45:04 70° ENE 22:48:51 10° SSE
Cosmos 1503 Rocket 4.0 22:40:29 10° SSW 22:45:42 80° WNW 22:49:48 16° N
Cosmos 968 Rocket 3.8 22:41:33 10° SSW 22:46:48 68° WNW 22:51:23 13° N
GPS 2-15 Rocket1 4.3 22:43:21 10° WNW 22:47:18 27° NNW 22:48:50 23° NNE
COSMOS 2406 3.4 22:41:37 10° SSW 22:47:23 73° WNW 22:52:09 15° N
CZ-2C R/B 2.8 22:45:20 23° NNE 22:48:39 57° ESE 22:54:06 10° S
Cosmos 2285 Rocket 4.4 22:43:04 10° S 22:49:12 44° ESE 22:52:12 28° NE
IRS-1A Rocket 4.3 22:44:06 10° SSE 22:49:44 64° ENE 22:55:25 10° N
Cosmos 2098 Rocket 3.7 22:46:47 10° SSW 22:51:46 57° W 22:55:15 13° NNW
Meteor 1-4 Rocket 2.5 22:52:29 10° S 22:56:06 85° W 22:57:23 38° N
Ariane Rocket 3.0 22:51:16 10° SSE 22:56:25 88° WSW 23:01:30 10° NNW
Cosmos 1354 Rocket 4.3 22:52:56 10° SSW 22:58:10 65° WNW 23:01:49 19° N
Palapa 6 Rocket 2.8 22:53:28 10° WNW 22:58:13 83° NNE 22:59:39 40° E
FALCON 9 R/B 3.8 22:32:00 10° WSW 23:01:18 74° SSE 23:05:58 28° ENE
Cosmos 1025 Rocket 2.9 22:57:45 10° S 23:02:10 81° E 23:03:44 39° NNE
DMSP B5D2-2 4.5 22:58:33 15° N 23:02:53 62° WNW 23:08:09 10° SSW
Cosmos 1184 Rocket 2.9 23:02:47 46° NNW 23:03:38 74° W 23:06:59 10° S
SJ-6B 3.3 23:01:48 10° SSE 23:04:54 42° ESE 23:04:54 42° ESE
Cosmos 1437 Rocket 3.6 23:04:42 10° SSE 23:07:51 37° ESE 23:07:51 37° ESE
MOS 1 Rocket 3.7 23:09:44 44° ENE 23:10:50 53° ESE 23:15:48 10° S
ISS -1.2 23:08:31 10° NW 23:08:51 12° NW 23:08:51 12° NW
Cosmos 1777 Rocket 4.5 23:06:58 10° S 23:11:55 40° ESE 23:12:19 40° E
Atlas Centaur 2 3.6 23:06:02 10° NNW 23:13:28 34° NNE 23:13:43 34° NE
Cosmos 2082 Rocket 2.4 23:08:47 10° S 23:14:23 54° ESE 23:15:31 46° ENE
ATLAS CENTAUR R/B 2.7 23:10:25 10° SW 23:14:47 40° WNW 23:16:50 27° NNW
Delta 168 3.7 23:13:02 10° WSW 23:16:12 31° S 23:16:34 30° SSE
Cosmos 1709 Rocket 4.3 23:30:58 10° SSW 23:37:19 66° W 23:40:05 35° NNW
Delta 7925 Rocket 4.0 23:33:09 10° WSW 23:37:57 53° SSE 23:38:46 48° SE
Meteor 2-15 Rocket 4.3 23:37:20 50° N 23:39:06 89° W 23:45:19 10° S
Cosmos 1867 3.5 23:38:39 46° NNW 23:40:19 81° WSW 23:45:43 10° SSE
Cosmos 1707 3.9 23:40:11 10° SSW 23:43:00 41° SW 23:43:00 41° SW
Cosmos 1455 Rocket 4.2 23:48:57 37° S 23:48:57 37° S 23:51:43 10° S
Cosmos 1763 Rocket 4.0 23:49:46 52° SSE 23:49:46 52° SSE 23:53:46 10° SSE
Cosmos 2369 Rocket 2.5 23:47:10 35° NW 23:49:31 65° WSW 23:55:13 10° S
Hubble Space Telescope 2.7 23:51:50 10° SW 23:54:44 26° S 23:54:44 26° S
